Location: Lac Lasalle
(46.0398°N, 74.1576°W)
Time: 06:20:17
(UTC-05:00)

SEEDS - Pass Details

Date: 17 December 2019
Orbit: 586 x 603 km, 97.5° (Epoch: 17 January)

Event Time Altitude Azimuth Distance (km) Brightness Sun altitude
Rises 17:18:23 0° 181° (S) 2,804 ? -11.0°
Reaches altitude 10° 17:20:36 10° 188° (S) 1,910 ? -11.3°
Maximum altitude 17:24:35 45° 261° (W) 810 ? -12.0°
Drops below altitude 10° 17:28:37 10° 335° (NNW) 1,934 ? -12.6°
Sets 17:30:53 0° 342° (NNW) 2,843 ? -13.0°
